Starlink 5546

operational
NORAD ID: 55632 Int'l Des: 2023-021 Owner: SPXS Country: US Constellation: starlink
LEOCIRCULAR

Starlink 5546について

説明を読み込み中...

リアルタイム位置

3D地球を読み込み中...

次回通過

高度履歴

Altitude vs Time

uPlot chart will show altitude changes over time

軌道要素

1 55632U 23021E 25352.54739501 -.00000024 00000-0 57734-5 0 9998
2 55632 70.0003 49.0536 0003035 269.5876 90.4935 14.98332527156145
Epoch: Dec 18, 2025 • Age: 11 hours

現在のステータス

高度 575.0 km
速度 7.57 km/s
衛星直下点 21.30°N, 38.69°W
打ち上げ日 Feb 17, 2023
運用期間 2.8 years
タイプ internet

技術仕様

分類 Payload
質量 305.00 kg
乾燥質量 290.00 kg
総質量 305.00 kg
長さ 0.20 m
直径 2.80 m
スパン 9.00 m
形状 Box + pan
製造者 SPXS
バスタイプ Starlink
フェーズステータス In Orbit
所有者/国 SPXS/US

大規模コンステレーション

Loading constellations...